This is the latest recevied weather packets stored in our database for station/object KQ4KX. If no packets are shown the sender has not sent any weather packets the latest 10 day(s).
| Time | Temp. | Humidity | Pressure | Rain* | Wind** | Luminosity | Snow |
|---|---|---|---|---|---|---|---|
| 1777917721 | 27.78° C | 57% | 1016.3 hPa | 0 mm | - | - | - |
| 1777917421 | 27.78° C | 59% | 1016.4 hPa | 0 mm | - | - | - |
| 1777917121 | 27.78° C | 54% | 1016.5 hPa | 0 mm | - | - | - |
| 1777916821 | 27.78° C | 57% | 1016.4 hPa | 0 mm | - | - | - |
| 1777916521 | 27.78° C | 55% | 1016.4 hPa | 0 mm | - | - | - |
| 1777916221 | 27.78° C | 55% | 1016.4 hPa | 0 mm | - | - | - |
| 1777915921 | 27.22° C | 55% | 1016.6 hPa | 0 mm | - | - | - |
| 1777915621 | 27.22° C | 54% | 1016.6 hPa | 0 mm | - | - | - |
| 1777915321 | 27.22° C | 53% | 1016.7 hPa | 0 mm | - | - | - |
| 1777915021 | 27.22° C | 53% | 1016.7 hPa | 0 mm | - | - | - |
| 1777914721 | 27.78° C | 53% | 1016.7 hPa | 0 mm | - | - | - |
| 1777914391 | 27.78° C | 56% | 1016.7 hPa | 0 mm | - | - | - |
| 1777914091 | 27.78° C | 54% | 1017 hPa | 0 mm | - | - | - |
| 1777913491 | 27.22° C | 59% | 1017 hPa | 0 mm | - | - | - |
| 1777913191 | 27.22° C | 56% | 1017 hPa | 0 mm | - | - | - |
| 1777912891 | 27.22° C | 55% | 1017.1 hPa | 0 mm | - | - | - |
| 1777912591 | 27.78° C | 54% | 1017.2 hPa | 0 mm | - | - | - |
| 1777912291 | 27.22° C | 56% | 1017.3 hPa | 0 mm | - | - | - |
| 1777911990 | 27.22° C | 54% | 1017.3 hPa | 0 mm | - | - | - |
| 1777911391 | 26.67° C | 60% | 1017.3 hPa | 0 mm | - | - | - |
| 1777911091 | 26.67° C | 56% | 1017.5 hPa | 0 mm | - | - | - |
| 1777910790 | 26.67° C | 58% | 1017.5 hPa | 0 mm | - | - | - |
| 1777910461 | 26.67° C | 57% | 1017.5 hPa | 0 mm | - | - | - |
| 1777909260 | 26.11° C | 58% | 1017.6 hPa | 0 mm | - | - | - |
| 1777908660 | 25.56° C | 59% | 1017.7 hPa | 0 mm | - | - | - |
* Rain latest hour (hover to see other rain measurements)
** Current wind speed in m/s (hover to see current wind gust speed)